[[{"header":{"parameterUnit":"m.s-1","parameterCategory":1,"la1":30.2991,"la2":30.254,"lo1":-89.0895,"lo2":-89.0444,"dy":0.0017,"dx":0.0017,"nx":28,"ny":28,"refTime":"2024-02-10T03:00:00:Z","depth":0,"parameterNumber":2,"parameterNumberName":"U-component_of_WINDS"},"data":[0,0,0,0,0,0,0,0,0,0,0,0,0,0,0,0,0,0,0,0,0,0,0,0,0,0,0,0,0,0,0,0,0,0,0,0,0,0,0,0,0,0,0,0,0,0,0,0,0,0,0,0,0,0,0,0,0,0,0.5284,0.5286,0,0.5446,0.5448,0.545,0.5465,0.5463,0.5461,0.546,0.563,0.5635,0.5642,0,0,0,0,0,0,0,0,0,0,0,0,0,0.4993,0.4999,0.5284,0.5286,0.5288,0.5446,0.5448,0.545,0.5465,0.5463,0.5461,0.5459,0.5628,0.5635,0.5642,0,0,0,0,0,0,0,0,0,0,0,0,0,0.5134,0.5,0.5284,0.5314,0.5319,0.5445,0.5448,0.5451,0.5465,0.5463,0.546,0.5458,0.5625,0.5634,0.5643,0.5752,0,0,0.5671,0.5675,0,0,0,0,0,0,0,0,0.5126,0.5145,0.5308,0.5312,0.5317,0.5432,0.5408,0.5552,0.5466,0.541,0.546,0.5457,0.5566,0.558,0.5616,0.576,0.5767,0.5672,0.5678,0.5682,0.5684,0,0,0,0,0,0,0,0.5116,0.5138,0.5348,0.531,0.5316,0.5322,0.5339,0.5435,0.5501,0.5414,0.5416,0.5435,0.5569,0.5607,0.562,0.5769,0.5672,0.568,0.5686,0.5689,0.6014,0.6017,0,0,0,0,0,0,0.51,0.5129,0.5343,0.5353,0.5213,0.5329,0.5348,0.5398,0.55,0.5513,0.5437,0.5435,0.5593,0.561,0.5626,0.5763,0.5681,0.569,0.5695,0.6011,0.6015,0.6018,0,0,0,0,0,0,0.5094,0.5119,0.5337,0.5242,0.527,0.5337,0.5393,0.5403,0.5442,0.5516,0.5529,0.5464,0.5592,0.5614,0.5721,0.5769,0.5694,0.5703,0.6008,0.6012,0.6017,0.6035,0,0,0,0,0,0,0.5085,0.5116,0.5157,0.5242,0.5275,0.5427,0.5396,0.5408,0.5457,0.5456,0.5545,0.5558,0.5591,0.5707,0.573,0.5781,0.571,0.6004,0.601,0.6015,0.6031,0.604,0.6048,0,0,0,0,0,0.5075,0.5155,0.5159,0.5184,0.5326,0.5429,0.5448,0.5484,0.5461,0.5503,0.5552,0.5555,0.576,0.5718,0.5744,0.5798,0.6001,0.6008,0.6015,0.6027,0.6038,0.6048,0,0,0,0,0,0,0.5074,0.5167,0.5172,0.5282,0.5348,0.5431,0.5486,0.5494,0.5568,0.5564,0.5607,0.5627,0.5734,0.5776,0.5728,0.591,0.5878,0.5891,0.5879,0.589,0.5899,0.5887,0.5717,0,0,0,0,0,0.5086,0.5161,0.5239,0.5329,0.5361,0.5418,0.5464,0.5486,0.5556,0.5584,0.5641,0.571,0.579,0.5842,0.592,0.6037,0.6059,0.6087,0.6096,0.6102,0.6113,0.6182,0.6197,0.6041,0.6041,0.6041,0,0,0.5113,0.5174,0.5218,0.533,0.5383,0.5462,0.5441,0.5524,0.5583,0.5597,0.5703,0.5747,0.5827,0.5941,0.5993,0.5979,0.6161,0.6111,0.6116,0.6124,0.6191,0.6205,0.6218,0.6046,0.6045,0.6045,0,0,0.5203,0.5254,0.5337,0.5391,0.5472,0.551,0.553,0.5613,0.5643,0.5749,0.5762,0.5834,0.5971,0.6029,0.6076,0.6191,0.6198,0.6215,0.6261,0.6327,0.634,0.6351,0.6395,0.641,0.6225,0.6226,0.6226,0,0.5227,0.5343,0.5378,0.5462,0.5513,0.5529,0.5614,0.5665,0.5768,0.5804,0.5786,0.5961,0.6015,0.6145,0.6173,0.6209,0.6236,0.6206,0.6335,0.6346,0.6357,0.64,0.6416,0.6227,0.6227,0.6227,0.6227,0,0.537,0.5451,0.5508,0.5607,0.5664,0.5748,0.5798,0.5852,0.587,0.591,0.6021,0.6087,0.6181,0.6213,0.6231,0.6346,0.6335,0.6326,0.6295,0.6373,0.6414,0.643,0.623,0.6229,0.6229,0.6228,0,0,0.5462,0.5581,0.5602,0.5649,0.5741,0.5805,0.5892,0.5982,0.6029,0.61,0.6176,0.6292,0.6285,0.6339,0.6364,0.6422,0.6513,0.6406,0.6409,0.6426,0.6648,0.6656,0.6674,0.6518,0.6521,0.6523,0.6642,0,0.5564,0.5717,0.5753,0.5885,0.5962,0.598,0.6056,0.6122,0.6162,0.6236,0.6281,0.6364,0.6347,0.638,0.6438,0.6489,0.6559,0.6481,0.6591,0.6595,0.6572,0.6695,0.6703,0.6812,0.6658,0.6661,0.6663,0,0.5703,0.5777,0.5917,0.6002,0.6036,0.6103,0.6191,0.626,0.6337,0.6363,0.6424,0.6444,0.6538,0.6501,0.6632,0.6579,0.6626,0.6659,0.6664,0.6677,0.6635,0.6714,0.6847,0.6864,0.6688,0.6686,0.6684,0,0.576,0.5895,0.5997,0.6036,0.6137,0.6185,0.6229,0.6303,0.6357,0.6434,0.647,0.6557,0.6606,0.6674,0.6718,0.6687,0.6848,0.6814,0.6874,0.6873,0.6908,0.6906,0.7053,0.6935,0.6935,0.6934,0.6934,0,0.5871,0.5956,0.6024,0.6087,0.6185,0.6226,0.6323,0.6368,0.6434,0.6508,0.6529,0.6598,0.6651,0.6729,0.6764,0.687,0.6891,0.6917,0.6926,0.6916,0.6913,0.6949,0.6943,0.6939,0.6938,0.6937,0.6936,0,0.5951,0.5999,0.6112,0.6199,0.6224,0.6292,0.6368,0.6431,0.6473,0.6567,0.6591,0.6658,0.6751,0.6801,0.6917,0.6941,0.706,0.7064,0.7034,0.7039,0.7097,0.7092,0.7275,0.7302,0.7163,0.7164,0.7165,0,0.6019,0.6085,0.618,0.6231,0.6277,0.6358,0.6413,0.6458,0.6514,0.6609,0.6662,0.6756,0.6833,0.6981,0.7041,0.7131,0.7139,0.7197,0.7153,0.7142,0.7143,0.714,0.7148,0.7205,0.7206,0.7207,0.7208,0,0.6136,0.6158,0.6235,0.6323,0.6388,0.646,0.653,0.6571,0.6628,0.6691,0.6786,0.6847,0.6966,0.7061,0.7156,0.7205,0.7218,0.7221,0.7241,0.7233,0.7214,0.7228,0.7058,0.7217,0.7216,0.7216,0.7215,0.7215,0.6214,0.6275,0.6353,0.644,0.6498,0.6564,0.6629,0.668,0.6759,0.686,0.6882,0.6983,0.7062,0.7192,0.7243,0.7325,0.7314,0.7341,0.7348,0.7355,0.7359,0.7199,0.7342,0.7342,0.7342,0.7341,0.7341,0,0.6335,0.6386,0.6465,0.6564,0.6634,0.6639,0.6718,0.6777,0.6865,0.6937,0.7014,0.7125,0.7218,0.7286,0.7381,0.7433,0.7442,0.7457,0.7455,0.7466,0.7362,0.7337,0.7449,0.7449,0.7449,0.7449,0.7449,0.7449,0.6405,0.651,0.6542,0.6677,0.6728,0.6827,0.6873,0.6936,0.6994,0.7117,0.7194,0.7237,0.7309,0.741,0.7496,0.7514,0.7549,0.7564,0.7583,0.7485,0.7473,0.7462,0.7439,0.7571,0.7571,0.7682,0.7683,0.7684]},{"header":{"parameterUnit":"m.s-1","parameterCategory":1,"la1":30.2991,"la2":30.254,"lo1":-89.0895,"lo2":-89.0444,"dy":0.0017,"dx":0.0017,"nx":28,"ny":28,"refTime":"2024-02-10T03:00:00:Z","depth":0,"parameterNumber":3,"parameterNumberName":"V-component_of_WINDS"},"data":[0,0,0,0,0,0,0,0,0,0,0,0,0,0,0,0,0,0,0,0,0,0,0,0,0,0,0,0,0,0,0,0,0,0,0,0,0,0,0,0,0,0,0,0,0,0,0,0,0,0,0,0,0,0,0,0,0,0,1.9579,1.9584,0,2.0015,2.002,2.0025,2.021,2.0209,2.0208,2.0208,2.067,2.0682,2.0695,0,0,0,0,0,0,0,0,0,0,0,0,0,1.8923,1.8934,1.9579,1.9584,1.959,2.0014,2.002,2.0026,2.021,2.0209,2.0208,2.0207,2.0665,2.0681,2.0696,0,0,0,0,0,0,0,0,0,0,0,0,0,1.9269,1.8938,1.9578,1.9732,1.975,2.0013,2.0021,2.0028,2.021,2.0209,2.0208,2.0207,2.066,2.0679,2.0699,2.0845,0,0,2.0759,2.0767,0,0,0,0,0,0,0,0,1.9249,1.9293,1.9704,1.9722,1.9743,2.0057,1.9959,2.0302,2.0211,2.0036,2.0208,2.0206,2.0468,2.0503,2.0588,2.0867,2.0886,2.076,2.0772,2.0781,2.0786,0,0,0,0,0,0,0,1.9225,1.9275,1.9752,1.971,1.9734,1.9786,1.9833,2.0025,2.0254,2.0051,2.0066,2.0114,2.0478,2.0569,2.06,2.0893,2.076,2.0777,2.0789,2.0797,2.132,2.1322,0,0,0,0,0,0,1.9173,1.9254,1.9738,1.9765,1.9487,1.9798,1.9852,1.9958,2.0253,2.0296,2.0115,2.0121,2.0536,2.0577,2.0617,2.0812,2.0781,2.0799,2.081,2.1318,2.1321,2.1323,0,0,0,0,0,0,1.9158,1.9214,1.9721,1.9514,1.9582,1.9811,1.9928,1.9967,2.0057,2.03,2.0344,2.0164,2.0537,2.059,2.0787,2.083,2.0808,2.0826,2.1316,2.1319,2.1322,2.1198,0,0,0,0,0,0,1.9139,1.9208,1.9261,1.9513,1.9592,1.9877,1.9931,1.9976,2.0089,2.0101,2.0358,2.0399,2.054,2.0757,2.0807,2.0857,2.0841,2.1313,2.1317,2.1321,2.12,2.1197,2.1194,0,0,0,0,0,1.9114,1.9212,1.9263,1.9321,1.9663,1.9879,1.9925,2.008,2.0091,2.015,2.0307,2.0391,2.0816,2.0775,2.0833,2.089,2.1311,2.1316,2.132,2.1201,2.1197,2.1195,0,0,0,0,0,0,1.8964,1.9247,1.9308,1.9488,1.9657,1.991,1.9988,2.0071,2.0245,2.025,2.044,2.0496,2.0679,2.0805,2.0753,2.105,2.1071,2.1088,2.0961,2.096,2.0957,2.0924,2.0857,0,0,0,0,0,1.895,1.9097,1.9339,1.9476,1.9557,1.9757,1.9858,1.9962,2.0148,2.0222,2.0393,2.0574,2.075,2.0862,2.1036,2.1218,2.1281,2.1287,2.1284,2.128,2.1294,2.1405,2.1412,2.1339,2.1339,2.1339,0,0,1.8927,1.91,1.9182,1.945,1.9593,1.9747,1.9817,1.9975,2.0093,2.0248,2.0444,2.0576,2.0792,2.0983,2.1076,2.1094,2.1327,2.1287,2.1282,2.1298,2.141,2.1417,2.1423,2.1342,2.1341,2.1341,0,0,1.8962,1.9105,1.9236,1.9378,1.9593,1.9726,1.9757,1.9998,2.0091,2.0289,2.041,2.0556,2.0852,2.1002,2.1117,2.1211,2.1298,2.1263,2.1251,2.1357,2.1363,2.1369,2.1407,2.1417,2.1275,2.1275,2.1275,0,1.8907,1.9137,1.9294,1.9446,1.9563,1.9706,1.9844,1.9976,2.0239,2.0319,2.0333,2.0711,2.0866,2.1096,2.1119,2.1206,2.1253,2.1236,2.1348,2.1356,2.1364,2.1403,2.1416,2.1269,2.127,2.1271,2.1271,0,1.906,1.9218,1.9299,1.9545,1.9671,1.9815,2.0,2.011,2.0204,2.0337,2.0542,2.0733,2.095,2.1013,2.1107,2.1259,2.1263,2.131,2.1336,2.1363,2.1403,2.1418,2.1262,2.1264,2.1265,2.1267,0,0,1.9013,1.9343,1.9371,1.9485,1.9734,1.9863,2.0017,2.0224,2.0317,2.0495,2.0632,2.0881,2.0926,2.1057,2.1171,2.1263,2.1331,2.1301,2.1309,2.1303,2.1515,2.1479,2.1493,2.1389,2.1392,2.1395,2.1498,0,1.9084,1.9358,1.9505,1.972,1.9872,2.0011,2.0146,2.0317,2.0446,2.0599,2.0745,2.0918,2.0964,2.1044,2.1141,2.1301,2.1377,2.1296,2.1525,2.1531,2.1468,2.1514,2.1476,2.1564,2.1514,2.1517,2.1519,0,1.9203,1.9374,1.9602,1.9836,1.9906,2.0023,2.0228,2.0369,2.0569,2.0657,2.0802,2.0915,2.1089,2.11,2.1346,2.1287,2.139,2.1483,2.1491,2.1521,2.1527,2.1548,2.1596,2.161,2.1544,2.1542,2.154,0,1.9149,1.9437,1.9612,1.9706,1.9982,2.0062,2.0183,2.038,2.0497,2.0678,2.0757,2.0957,2.1067,2.1223,2.1389,2.1381,2.1621,2.1644,2.1704,2.17,2.175,2.1745,2.1818,2.181,2.181,2.181,2.181,0,1.9214,1.935,1.9591,1.9699,1.9857,2.0028,2.0182,2.0314,2.0489,2.063,2.0764,2.0895,2.1104,2.1264,2.1395,2.1582,2.163,2.1711,2.1745,2.1701,2.1691,2.1773,2.1772,2.1814,2.1813,2.1812,2.1812,0,1.9181,1.9348,1.9548,1.9793,1.9858,1.9964,2.0178,2.0291,2.0427,2.0604,2.0656,2.0873,2.1067,2.1247,2.1507,2.1596,2.1785,2.1827,2.1716,2.1735,2.1786,2.178,2.1917,2.1946,2.1914,2.1914,2.1914,0,1.9213,1.932,1.9575,1.9676,1.9793,1.9955,2.0074,2.0249,2.0368,2.0605,2.0691,2.0894,2.1065,2.1371,2.1555,2.1756,2.1806,2.1841,2.1838,2.1791,2.1812,2.1804,2.1818,2.1838,2.1838,2.1837,2.1837,0,1.9253,1.933,1.9493,1.9687,1.9824,1.9986,2.0153,2.023,2.0438,2.0567,2.0764,2.0897,2.1161,2.1364,2.1586,2.1718,2.1815,2.1836,2.1861,2.1818,2.1751,2.1792,2.1712,2.1833,2.1833,2.1833,2.1834,2.1834,1.9256,1.9359,1.9555,1.9734,1.9877,2.0031,2.015,2.03,2.0466,2.0691,2.0786,2.0987,2.119,2.1497,2.1628,2.1793,2.1814,2.1849,2.186,2.1866,2.1859,2.1721,2.1834,2.1835,2.1835,2.1835,2.1836,0,1.9306,1.9439,1.9601,1.9829,1.9971,2.0044,2.0234,2.035,2.0523,2.0701,2.0866,2.1096,2.1294,2.1493,2.1703,2.1797,2.1848,2.1847,2.1844,2.1874,2.1826,2.1785,2.1803,2.1803,2.1803,2.1803,2.1803,2.1803,1.9348,1.9527,1.9628,1.9882,2.0017,2.021,2.0313,2.0458,2.0601,2.0849,2.1012,2.1139,2.1329,2.1554,2.174,2.1795,2.1868,2.1856,2.1923,2.1875,2.1876,2.1877,2.184,2.1869,2.1869,2.1958,2.1958,2.1959]}]]